Location: Nakusp
(50.2330°N, 117.8000°W)
Time: 15:03:57
(UTC-08:00)

Daily predictions for brighter satellites

Satellite Brightness Start Highest point End
(mag) Time Altitude Azimuth Time Altitude Azimuth Time Altitude Azimuth
Cosmos 1844 Rocket 3.2 16:28:49 10° S 16:34:02 40° ESE 16:39:16 10° NE
Cosmos 2061 Rocket 4.1 16:28:14 10° S 16:34:27 68° E 16:40:47 10° NNE
Tsikada Rocket 4.2 16:28:38 10° N 16:34:39 50° ENE 16:40:37 10° SSE
COSMO-SKYMED 1 4.5 16:34:47 10° ENE 16:36:03 11° E 16:37:17 10° ESE
COSMOS 2455 3.8 16:34:13 10° SSE 16:39:11 28° ESE 16:44:11 10° NE
Cosmos 332 Rocket 4.1 16:34:24 10° NNW 16:39:16 78° WSW 16:44:09 10° SSE
Cosmos 44 4.4 16:38:27 10° NNW 16:42:06 23° NNE 16:45:52 10° E
SL-23 DEB 3.9 16:39:22 10° W 16:42:44 78° N 16:47:47 10° E
YAOGAN 1 3.4 16:39:19 10° ESE 16:43:03 29° ENE 16:46:47 10° N
Cosmos 1763 Rocket 3.7 16:40:38 10° NNW 16:45:44 47° ENE 16:50:43 10° SE
CZ-4 R/B 1.8 16:42:16 10° SE 16:45:49 36° ENE 16:49:22 10° N
Cosmos 1346 Rocket 3.4 16:42:02 10° SSW 16:45:53 59° WNW 16:49:47 10° N
Cosmos 2016 Rocket 4.0 16:40:33 10° S 16:46:49 68° E 16:53:03 10° NNE
BREEZE-M DEB (TANK) 4.0 16:49:56 10° SSW 16:51:50 23° SE 16:54:12 10° E
Cosmos 1933 3.5 16:48:16 10° S 16:52:10 50° E 16:56:05 10° NNE
CSL-04 Debris 4.1 16:47:10 10° SSE 16:52:34 72° ENE 16:57:58 10° NNW
Cosmos 1707 Rocket 3.7 16:48:15 10° S 16:52:43 84° W 16:57:12 10° N
SL-27 R/B 3.6 16:51:20 10° N 16:53:58 21° NE 16:56:36 10° ESE
Cosmos 1814 Rocket 4.1 16:49:37 10° NNW 16:54:56 60° ENE 17:00:14 10° SE
ATLAS CENTAUR R/B 3.5 16:54:08 10° NW 16:55:24 11° NNW 16:56:41 10° N
SJ-7 4.4 16:51:45 10° SSE 16:55:53 70° ENE 17:00:00 10° N
Cosmos 1833 Rocket 3.4 16:51:51 10° NNW 16:56:54 32° NE 17:01:55 10° ESE
DNEPR-1 R/B 3.4 16:52:41 10° SW 16:57:01 79° SE 17:01:17 10° NE
ALOS 3.3 16:55:22 10° ESE 16:59:02 23° ENE 17:02:43 10° N
Aureole 3 3.8 16:55:02 10° N 16:59:15 88° E 17:04:42 10° S
Cosmos 1844 4.0 16:54:37 10° S 17:00:09 49° ESE 17:05:45 10° NE
Cosmos 1633 3.9 16:59:36 10° NNE 17:02:24 20° ENE 17:05:12 10° ESE
Cosmos 2278 Rocket 3.1 17:01:26 10° SSE 17:06:13 29° ESE 17:10:32 12° NE
Okean 2 Rocket 4.4 17:03:40 10° NNE 17:06:54 19° ENE 17:10:07 10° ESE
Cosmos 2173 Rocket 4.4 17:02:23 10° SSW 17:08:26 66° WNW 17:14:35 10° N
SMAP 3.0 17:04:16 10° SSE 17:08:55 84° ENE 17:13:36 10° NNW
Cosmos 2263 Rocket 3.5 17:04:33 10° WSW 17:09:44 36° NW 17:14:54 10° NNE
CZ-2C R/B 3.8 17:05:06 10° S 17:09:51 44° W 17:14:46 10° NNW
ATLAS 3B R/B 3.7 17:04:25 10° W 17:11:10 41° NNW 17:17:40 10° NE
Meteor 1-28 Rocket 3.6 17:08:19 10° NNE 17:11:51 39° E 17:15:20 10° SSE
Cosmos 1484 Rocket 2.8 17:08:53 10° SSE 17:12:44 88° WSW 17:16:43 10° NNW
Cosmos 1850 Rocket 4.2 17:09:04 10° SSW 17:14:15 73° WNW 17:19:27 10° NNE
Ariane Rocket 3.2 17:09:10 10° SSE 17:14:16 80° WSW 17:19:23 10° NNW
Cosmos 540 Rocket 4.0 17:13:01 10° NNW 17:17:52 37° NE 17:22:40 10° SE
EO 1 Del DPAF 4.4 17:16:55 18° ENE 17:18:29 23° E 17:21:35 10° SSE
Cosmos 841 Rocket 3.5 17:14:17 10° NNW 17:19:34 66° ENE 17:24:48 10° SE
Cosmos 1606 3.9 17:17:09 10° SE 17:19:59 20° E 17:20:19 20° E
CORIOLIS 4.2 17:14:34 10° SSE 17:20:02 89° ENE 17:25:32 10° NNW
USA 161 3.5 17:19:06 10° NNW 17:20:24 17° WNW 17:21:45 10° WSW
BREEZE-M R/B 3.2 17:18:44 10° W 17:21:09 41° SSW 17:24:38 10° SE
Landsat 4 4.2 17:18:48 11° NNE 17:22:07 37° E 17:25:39 10° SSE
SKYMED 2 4.4 17:21:13 12° NE 17:24:36 30° E 17:28:27 10° SSE
Cosmos 1908 Rocket 3.5 17:20:22 10° N 17:24:41 56° ENE 17:28:56 10° SSE
AQUARIUS 4.5 17:20:50 10° S 17:25:19 71° WSW 17:29:50 10° NNW
Cosmos 1733 Rocket 3.6 17:23:29 10° NNW 17:27:53 63° W 17:32:16 10° S
USA 234 4.2 17:24:10 17° E 17:28:07 30° SE 17:33:45 10° S
Cosmos 1782 3.8 17:25:01 10° SE 17:28:22 26° E 17:29:16 23° ENE
Cosmos 2242 Rocket 3.8 17:26:28 10° SSW 17:31:02 78° W 17:35:36 10° N
Sich 1 Rocket 3.6 17:28:06 10° N 17:32:28 57° ENE 17:36:50 10° SSE
Meteor 1-25 Rocket 4.2 17:26:54 10° N 17:32:47 74° ENE 17:38:35 10° SSE
Cosmos 2233 Rocket 3.9 17:29:42 10° S 17:35:56 73° E 17:42:08 10° NNE
Meteor 1-20 Rocket 4.1 17:31:40 10° N 17:37:18 73° ENE 17:42:48 10° SSE
SPOT 3 Rocket 3.6 17:33:40 10° SSE 17:38:47 59° ENE 17:43:55 10° N
Lacrosse 5 2.3 17:34:15 10° W 17:39:12 53° NNW 17:42:16 22° NE
Cosmos 2082 Rocket 2.2 17:35:27 10° NNW 17:41:06 58° NE 17:46:41 10° SE
Cosmos 1862 Rocket 3.7 17:37:57 10° SSW 17:42:23 78° W 17:46:53 10° N
CZ-4C R/B 3.1 17:36:17 10° NW 17:42:46 48° NE 17:47:31 22° E
Cosmos 44 Rocket 3.5 17:42:20 10° NNW 17:47:01 48° NE 17:49:09 29° E
Cosmos 1340 3.9 17:43:51 10° SW 17:47:28 43° WNW 17:51:06 10° N
NOSS 3-2 (C) 4.3 17:41:36 10° WSW 17:47:38 49° NNW 17:53:08 16° NE
NOAA 12 4.1 17:43:35 10° SSE 17:48:50 62° ENE 17:54:05 10° N
Cosmos 1437 3.5 17:49:03 10° SSW 17:52:10 52° WNW 17:54:51 13° N
MONITOR-E 4.1 17:53:13 10° SSE 17:56:15 85° WSW 17:59:20 10° NNW
ERS-2 2.8 17:57:38 10° S 18:01:16 56° WSW 18:04:54 10° NNW
METEOR-M 4.4 17:57:34 10° S 18:02:53 71° WSW 18:08:15 10° NNW
Cosmos 292 Rocket 3.8 17:58:28 10° NNW 18:03:09 52° ENE 18:04:35 38° ESE
Okean 1-7 3.1 18:00:51 10° S 18:05:07 53° E 18:06:01 44° NE
CZ-2C R/B 4.0 18:00:53 10° N 18:05:19 67° WNW 18:09:48 10° SSW
Meteor 1-10 Rocket 4.3 18:00:01 10° S 18:05:30 52° E 18:10:56 11° NNE
Cosmos 1782 Rocket 3.4 18:04:36 10° N 18:08:58 88° W 18:13:20 10° S
COSMO-SKYMED 1 2.4 18:09:51 20° NNE 18:12:53 87° ESE 18:17:14 10° SSW
Cosmos 1891 Rocket 4.4 18:09:19 10° SSE 18:15:19 56° E 18:21:14 10° NNE
CENTAUR R/B 2.9 18:10:59 10° WSW 18:17:15 64° NW 18:21:47 24° NE
Cosmos 1844 Rocket 3.7 18:12:35 10° WSW 18:17:56 42° NW 18:22:34 14° NNE
YAOGAN 1 4.1 18:15:03 10° SSW 18:19:03 36° W 18:23:05 10° NNW
CZ-4 R/B 3.8 18:17:53 10° SSW 18:20:59 22° W 18:24:04 10° NW
Cosmos 44 3.1 18:19:16 10° NW 18:23:54 88° NE 18:24:57 55° SE
COSMOS 2455 3.1 18:18:42 10° SW 18:24:41 68° NW 18:28:07 27° NNE
Timation 2 Rocket 4.1 18:19:57 10° NNW 18:26:46 61° NE 18:28:49 43° ESE
Cosmos 2221 Rocket 3.4 18:23:38 10° S 18:28:03 81° E 18:28:14 78° ENE
Cosmos 1072 Rocket 4.4 18:22:15 10° S 18:28:29 85° E 18:34:51 10° N
SL-27 R/B 4.2 18:26:14 10° NW 18:29:13 30° WSW 18:32:11 10° SSW
Nadezhda 4 Rocket 3.8 18:24:06 10° N 18:30:13 64° ENE 18:35:09 16° SSE
Meteor 1-11 Rocket 3.7 18:24:36 10° N 18:30:33 74° ENE 18:35:57 12° SSE
Cosmos 2034 Rocket 3.9 18:28:32 10° S 18:34:51 68° E 18:41:10 10° NNE
BREEZE-M DEB (TANK) 4.3 18:33:06 10° W 18:34:10 23° WSW 18:34:10 23° WSW
ALOS 3.0 18:31:37 10° S 18:36:10 53° W 18:40:47 10° NNW
Cosmos 1633 4.2 18:34:06 10° NNW 18:37:28 34° W 18:40:49 10° SSW
FENGYUN 3A 4.2 18:33:07 10° S 18:38:27 58° W 18:43:49 10° NNW
Cosmos 1833 Rocket 3.2 18:35:39 10° NW 18:41:09 57° WSW 18:46:38 10° S
Cosmos 1703 Rocket 4.4 18:37:22 10° SSW 18:41:44 50° WNW 18:44:44 19° N
Cosmos 2297 3.6 18:37:20 10° SSW 18:42:46 65° SE 18:42:46 65° SE
Cosmos 1092 Rocket 4.0 18:39:13 10° N 18:44:33 55° NE 18:44:33 55° NE
Okean 2 Rocket 3.6 18:40:56 10° NNW 18:45:24 59° W 18:49:51 10° S
Cosmos 1503 Rocket 3.9 18:42:30 10° SSW 18:47:38 83° SSE 18:47:38 83° SSE
Cosmos 2278 Rocket 2.7 18:44:23 10° SW 18:49:59 57° NW 18:52:24 33° N
Cosmos 1606 4.2 18:52:03 10° SW 18:55:26 35° WNW 18:55:26 35° WNW
ATLAS 3B R/B 4.0 18:57:55 10° WNW 19:03:42 26° N 19:05:01 25° NNE
Cosmos 1464 Rocket 4.4 18:58:24 10° SSW 19:04:26 60° WNW 19:10:33 10° N
USA 234 3.1 19:11:31 82° ESE 19:11:45 83° SSE 19:18:18 10° WSW
Lacrosse 5 3.3 19:18:12 10° WNW 19:21:28 31° NW 19:21:28 31° NW
Cosmos 2082 Rocket 4.0 19:20:04 10° NW 19:24:52 28° WSW 19:29:36 10° SSW
CZ-4C R/B 3.1 19:24:48 10° NW 19:31:44 64° SW 19:32:45 58° SSW
CENTAUR R/B 4.1 20:03:22 10° WNW 20:08:59 32° NNW 20:08:59 32° NNW
